This demonstration page uses our WeatherBlox Daily Observations layout. Learn more.

Left ArrowRight Arrow

34.74481, -87.66753

Hourly Observations for February 12, 2018

Temp ( °F °C ) Dew Point ( °F °C ) Humidity (%) Winds ( mph kmh ) Pressure ( in mb ) Visibility ( mi km ) Precip ( " mm )
12:53 am 00:53 Cloudy 37 2.8 32 0 82 82 N 10 17 30.27 1025 8 13 0.00 0.00
1:53 am 01:53 Cloudy 36 2.2 31 -0.6 82 82 N 8 13 30.30 1026 10 16 0.00 0.00
2:53 am 02:53 Cloudy 35 1.7 30 -1.1 82 82 NNW 14 22 30.34 1027 9 14 0.00 0.00
3:34 am 03:34 Cloudy 34 1.1 29 -1.7 82 82 N 9 15 30.39 1029 9 14 0.00 0.00
3:53 am 03:53 Cloudy 34 1.1 29 -1.7 82 82 N 10 17 30.36 1028 8 13 0.00 0.00
4:53 am 04:53 Cloudy with Light Wintry Mix 34 1.1 28 -2.2 79 79 NNE 9 15 30.37 1028 8 13 0.00 0.03
5:53 am 05:53 Cloudy 34 1.1 28 -2.2 79 79 NNE 10 17 30.40 1029 8 13 0.00 0.03
6:53 am 06:53 Cloudy 34 1.1 28 -2.2 79 79 NNE 13 20 30.42 1030 8 13 0.00 0.00
7:53 am 07:53 Cloudy 35 1.7 28 -2.2 76 76 NNE 10 17 30.44 1031 8 13 0.00 0.00
8:53 am 08:53 Cloudy 35 1.7 28 -2.2 76 76 NNE 8 13 30.46 1032 7 11 0.00 0.00
9:53 am 09:53 Cloudy 36 2.2 28 -2.2 73 73 NNE 14 22 30.48 1032 9 14 0.00 0.00
10:53 am 10:53 Cloudy 37 2.8 29 -1.7 73 73 N 8 13 30.48 1032 10 16 0.00 0.00
11:53 am 11:53 Cloudy 38 3.3 30 -1.1 73 73 NE 12 19 30.47 1032 10 16 0.00 0.00
12:53 pm 12:53 Cloudy 39 3.9 31 -0.6 73 73 NNE 12 19 30.45 1031 10 16 0.00 0.00
1:53 pm 13:53 Cloudy 40 4.4 32 0 73 73 N 8 13 30.45 1031 10 16 0.00 0.00
2:53 pm 14:53 Cloudy 41 5 32 0 70 70 NNE 10 17 30.45 1031 10 16 0.00 0.00
3:53 pm 15:53 Cloudy 41 5 32 0 70 70 NE 9 15 30.47 1032 10 16 0.00 0.00
4:53 pm 16:53 Cloudy 40 4.4 32 0 73 73 NE 9 15 30.49 1033 10 16 0.00 0.00
5:53 pm 17:53 Cloudy 39 3.9 31 -0.6 73 73 NE 8 13 30.50 1033 10 16 0.00 0.00
6:53 pm 18:53 Cloudy 39 3.9 31 -0.6 73 73 NE 13 20 30.51 1033 10 16 0.00 0.00
7:53 pm 19:53 Cloudy 39 3.9 31 -0.6 73 73 NE 12 19 30.52 1034 10 16 0.00 0.00
8:53 pm 20:53 Cloudy 39 3.9 32 0 76 76 NE 9 15 30.53 1034 10 16 0.00 0.00
9:53 pm 21:53 Cloudy 39 3.9 32 0 76 76 ENE 8 13 30.52 1034 9 14 0.00 0.00
10:53 pm 22:53 Cloudy 39 3.9 33 0.6 79 79 NE 9 15 30.51 1033 10 16 0.00 0.00
11:53 pm 23:53 Cloudy 39 3.9 33 0.6 79 79 ENE 7 11 30.50 1033 10 16 0.00 0.00

Powered by AerisWeather